owner,sensor,date,latitude,longitude,vertical_datum,wind_speed,wind_to_direction,wind_speed_of_gust,qcFlag 
DISL,ioos:station:DISL:MBLA:1,2007-07-01T00:00:00Z,30.4367,-88.0117,14.2,6.7,228.0,99.0,'11111222,11111222,11144222' 
DISL,ioos:station:DISL:MBLA:1,2007-07-01T00:30:00Z,30.4367,-88.0117,14.2,6.3,237.0,99.0,'11111222,11111222,11144222' 
DISL,ioos:station:DISL:MBLA:1,2007-07-01T01:00:00Z,30.4367,-88.0117,14.2,6.2,244.0,99.0,'11111222,11111222,11144222' 
DISL,ioos:station:DISL:MBLA:1,2007-07-01T01:30:00Z,30.4367,-88.0117,14.2,5.4,250.0,99.0,'11111222,11111222,11144222' 
DISL,ioos:station:DISL:MBLA:1,2007-07-01T02:00:00Z,30.4367,-88.0117,14.2,5.1,248.0,99.0,'11111222,11111222,11144222' 
DISL,ioos:station:DISL:MBLA:1,2007-07-01T02:30:00Z,30.4367,-88.0117,14.2,3.9,245.0,99.0,'11111222,11111222,11144222' 
DISL,ioos:station:DISL:MBLA:1,2007-07-01T03:00:00Z,30.4367,-88.0117,14.2,4.0,231.0,99.0,'11111222,11111222,11144222' 
DISL,ioos:station:DISL:MBLA:1,2007-07-01T03:30:00Z,30.4367,-88.0117,14.2,4.5,232.0,99.0,'11111222,11111222,11144222' 
DISL,ioos:station:DISL:MBLA:1,2007-07-01T04:00:00Z,30.4367,-88.0117,14.2,4.5,239.0,99.0,'11111222,11111222,11144222' 
DISL,ioos:station:DISL:MBLA:1,2007-07-01T04:30:00Z,30.4367,-88.0117,14.2,4.5,245.0,99.0,'11111222,11111222,11144222' 
DISL,ioos:station:DISL:MBLA:1,2007-07-01T05:00:00Z,30.4367,-88.0117,14.2,4.9,248.0,99.0,'11111222,11111222,11144222' 
DISL,ioos:station:DISL:MBLA:1,2007-07-01T05:30:00Z,30.4367,-88.0117,14.2,4.2,260.0,99.0,'11111222,11111222,11144222' 
DISL,ioos:station:DISL:MBLA:1,2007-07-01T06:00:00Z,30.4367,-88.0117,14.2,3.0,257.0,99.0,'11111222,11111222,11144222' 
DISL,ioos:station:DISL:MBLA:1,2007-07-01T06:30:00Z,30.4367,-88.0117,14.2,4.7,270.0,99.0,'11111222,11111222,11144222' 
DISL,ioos:station:DISL:MBLA:1,2007-07-01T07:00:00Z,30.4367,-88.0117,14.2,6.4,281.0,99.0,'11111222,11111222,11144222' 
DISL,ioos:station:DISL:MBLA:1,2007-07-01T07:30:00Z,30.4367,-88.0117,14.2,5.4,289.0,99.0,'11111222,11111222,11144222' 
DISL,ioos:station:DISL:MBLA:1,2007-07-01T08:00:00Z,30.4367,-88.0117,14.2,6.6,283.0,99.0,'11111222,11111222,11144222' 
DISL,ioos:station:DISL:MBLA:1,2007-07-01T08:30:00Z,30.4367,-88.0117,14.2,6.8,312.0,99.0,'11111222,11111222,11144222' 
DISL,ioos:station:DISL:MBLA:1,2007-07-01T09:00:00Z,30.4367,-88.0117,14.2,8.3,317.0,99.0,'11111222,11111222,11144222' 
DISL,ioos:station:DISL:MBLA:1,2007-07-01T09:30:00Z,30.4367,-88.0117,14.2,6.8,316.0,99.0,'11111222,11111222,11144222' 
DISL,ioos:station:DISL:MBLA:1,2007-07-01T10:00:00Z,30.4367,-88.0117,14.2,6.5,330.0,99.0,'11111222,11111222,11144222' 
DISL,ioos:station:DISL:MBLA:1,2007-07-01T10:30:00Z,30.4367,-88.0117,14.2,5.8,336.0,99.0,'11111222,11111222,11144222' 
DISL,ioos:station:DISL:MBLA:1,2007-07-01T11:00:00Z,30.4367,-88.0117,14.2,4.7,343.0,99.0,'11111222,11111222,11144222' 
DISL,ioos:station:DISL:MBLA:1,2007-07-01T11:30:00Z,30.4367,-88.0117,14.2,3.9,349.0,99.0,'11111222,11111222,11144222' 
DISL,ioos:station:DISL:MBLA:1,2007-07-01T12:00:00Z,30.4367,-88.0117,14.2,4.0,335.0,99.0,'11111222,11111222,11144222' 
DISL,ioos:station:DISL:MBLA:1,2007-07-01T12:30:00Z,30.4367,-88.0117,14.2,4.6,326.0,99.0,'11111222,11111222,11144222' 
DISL,ioos:station:DISL:MBLA:1,2007-07-01T13:00:00Z,30.4367,-88.0117,14.2,5.0,314.0,99.0,'11111222,11111222,11144222' 
DISL,ioos:station:DISL:MBLA:1,2007-07-01T13:30:00Z,30.4367,-88.0117,14.2,4.2,317.0,99.0,'11111222,11111222,11144222' 
DISL,ioos:station:DISL:MBLA:1,2007-07-01T14:00:00Z,30.4367,-88.0117,14.2,4.0,309.0,99.0,'11111222,11111222,11144222' 
DISL,ioos:station:DISL:MBLA:1,2007-07-01T14:30:00Z,30.4367,-88.0117,14.2,2.5,307.0,99.0,'11111222,11111222,11144222' 
DISL,ioos:station:DISL:MBLA:1,2007-07-01T15:00:00Z,30.4367,-88.0117,14.2,1.4,320.0,99.0,'11111222,11111222,11144222' 
DISL,ioos:station:DISL:MBLA:1,2007-07-01T15:30:00Z,30.4367,-88.0117,14.2,1.9,295.0,99.0,'11111222,11111222,11144222' 
DISL,ioos:station:DISL:MBLA:1,2007-07-01T16:00:00Z,30.4367,-88.0117,14.2,1.6,304.0,99.0,'11111222,11111222,11144222' 
DISL,ioos:station:DISL:MBLA:1,2007-07-01T16:30:00Z,30.4367,-88.0117,14.2,1.6,77.0,99.0,'11111222,11111222,11144222' 
DISL,ioos:station:DISL:MBLA:1,2007-07-01T17:00:00Z,30.4367,-88.0117,14.2,1.4,97.0,99.0,'11111222,11111222,11144222' 
DISL,ioos:station:DISL:MBLA:1,2007-07-01T17:30:00Z,30.4367,-88.0117,14.2,2.3,122.0,99.0,'11111222,11111222,11144222' 
DISL,ioos:station:DISL:MBLA:1,2007-07-01T18:00:00Z,30.4367,-88.0117,14.2,2.3,127.0,99.0,'11111222,11111222,11144222' 
DISL,ioos:station:DISL:MBLA:1,2007-07-01T18:30:00Z,30.4367,-88.0117,14.2,4.3,173.0,99.0,'11111222,11111222,11144222' 
DISL,ioos:station:DISL:MBLA:1,2007-07-01T19:00:00Z,30.4367,-88.0117,14.2,4.4,169.0,99.0,'11111222,11111222,11144222' 
DISL,ioos:station:DISL:MBLA:1,2007-07-01T19:30:00Z,30.4367,-88.0117,14.2,4.5,185.0,99.0,'11111222,11111222,11144222' 
DISL,ioos:station:DISL:MBLA:1,2007-07-01T20:00:00Z,30.4367,-88.0117,14.2,5.4,185.0,99.0,'11111222,11111222,11144222' 
DISL,ioos:station:DISL:MBLA:1,2007-07-01T20:30:00Z,30.4367,-88.0117,14.2,7.0,194.0,99.0,'11111222,11111222,11144222' 
DISL,ioos:station:DISL:MBLA:1,2007-07-01T21:00:00Z,30.4367,-88.0117,14.2,7.3,214.0,99.0,'11111222,11111222,11144222' 
DISL,ioos:station:DISL:MBLA:1,2007-07-01T21:30:00Z,30.4367,-88.0117,14.2,7.4,211.0,99.0,'11111222,11111222,11144222' 
DISL,ioos:station:DISL:MBLA:1,2007-07-01T22:00:00Z,30.4367,-88.0117,14.2,8.0,212.0,99.0,'11111222,11111222,11144222' 
DISL,ioos:station:DISL:MBLA:1,2007-07-01T22:30:00Z,30.4367,-88.0117,14.2,8.2,216.0,99.0,'11111222,11111222,11144222' 
DISL,ioos:station:DISL:MBLA:1,2007-07-01T23:00:00Z,30.4367,-88.0117,14.2,8.6,216.0,99.0,'11111222,11111222,11144222' 
DISL,ioos:station:DISL:MBLA:1,2007-07-01T23:30:00Z,30.4367,-88.0117,14.2,8.4,224.0,99.0,'11111222,11111222,11144222' 
DISL,ioos:station:DISL:MBLA:1,2007-07-02T00:00:00Z,30.4367,-88.0117,14.2,8.2,229.0,99.0,'11111222,11111222,11144222' 
DISL,ioos:station:DISL:MBLA:1,2007-07-02T00:30:00Z,30.4367,-88.0117,14.2,9.7,237.0,99.0,'11111222,11111222,11144222' 
DISL,ioos:station:DISL:MBLA:1,2007-07-02T01:00:00Z,30.4367,-88.0117,14.2,9.2,241.0,99.0,'11111222,11111222,11144222' 
DISL,ioos:station:DISL:MBLA:1,2007-07-02T01:30:00Z,30.4367,-88.0117,14.2,8.5,244.0,99.0,'11111222,11111222,11144222' 
DISL,ioos:station:DISL:MBLA:1,2007-07-02T02:00:00Z,30.4367,-88.0117,14.2,8.5,245.0,99.0,'11111222,11111222,11144222' 
DISL,ioos:station:DISL:MBLA:1,2007-07-02T02:30:00Z,30.4367,-88.0117,14.2,8.1,242.0,99.0,'11111222,11111222,11144222' 
DISL,ioos:station:DISL:MBLA:1,2007-07-02T03:00:00Z,30.4367,-88.0117,14.2,7.8,248.0,99.0,'11111222,11111222,11144222' 
DISL,ioos:station:DISL:MBLA:1,2007-07-02T03:30:00Z,30.4367,-88.0117,14.2,6.8,247.0,99.0,'11111222,11111222,11144222' 
DISL,ioos:station:DISL:MBLA:1,2007-07-02T04:00:00Z,30.4367,-88.0117,14.2,5.9,267.0,99.0,'11111222,11111222,11144222' 
DISL,ioos:station:DISL:MBLA:1,2007-07-02T04:30:00Z,30.4367,-88.0117,14.2,5.9,271.0,99.0,'11111222,11111222,11144222' 
DISL,ioos:station:DISL:MBLA:1,2007-07-02T05:00:00Z,30.4367,-88.0117,14.2,8.5,300.0,99.0,'11111222,11111222,11144222' 
DISL,ioos:station:DISL:MBLA:1,2007-07-02T05:30:00Z,30.4367,-88.0117,14.2,11.7,342.0,99.0,'11111222,11111222,11144222' 
DISL,ioos:station:DISL:MBLA:1,2007-07-02T06:00:00Z,30.4367,-88.0117,14.2,9.7,355.0,99.0,'11111222,11111222,11144222' 
DISL,ioos:station:DISL:MBLA:1,2007-07-02T06:30:00Z,30.4367,-88.0117,14.2,11.3,357.0,99.0,'11111222,11111222,11144222' 
DISL,ioos:station:DISL:MBLA:1,2007-07-02T07:00:00Z,30.4367,-88.0117,14.2,7.5,350.0,99.0,'11111222,11111222,11144222' 
DISL,ioos:station:DISL:MBLA:1,2007-07-02T07:30:00Z,30.4367,-88.0117,14.2,6.7,5.0,99.0,'11111222,11111222,11144222' 
DISL,ioos:station:DISL:MBLA:1,2007-07-02T08:00:00Z,30.4367,-88.0117,14.2,6.0,4.0,99.0,'11111222,11111222,11144222' 
DISL,ioos:station:DISL:MBLA:1,2007-07-02T08:30:00Z,30.4367,-88.0117,14.2,3.6,32.0,99.0,'11111222,11111222,11144222' 
DISL,ioos:station:DISL:MBLA:1,2007-07-02T09:00:00Z,30.4367,-88.0117,14.2,3.7,24.0,99.0,'11111222,11111222,11144222' 
DISL,ioos:station:DISL:MBLA:1,2007-07-02T09:30:00Z,30.4367,-88.0117,14.2,3.5,34.0,99.0,'11111222,11111222,11144222' 
DISL,ioos:station:DISL:MBLA:1,2007-07-02T10:00:00Z,30.4367,-88.0117,14.2,4.1,358.0,99.0,'11111222,11111222,11144222' 
DISL,ioos:station:DISL:MBLA:1,2007-07-02T10:30:00Z,30.4367,-88.0117,14.2,4.4,27.0,99.0,'11111222,11111222,11144222' 
DISL,ioos:station:DISL:MBLA:1,2007-07-02T11:00:00Z,30.4367,-88.0117,14.2,4.1,37.0,99.0,'11111222,11111222,11144222' 
DISL,ioos:station:DISL:MBLA:1,2007-07-02T11:30:00Z,30.4367,-88.0117,14.2,3.0,36.0,99.0,'11111222,11111222,11144222' 
DISL,ioos:station:DISL:MBLA:1,2007-07-02T12:00:00Z,30.4367,-88.0117,14.2,2.3,31.0,99.0,'11111222,11111222,11144222' 
DISL,ioos:station:DISL:MBLA:1,2007-07-02T12:30:00Z,30.4367,-88.0117,14.2,2.4,10.0,99.0,'11111222,11111222,11144222' 
DISL,ioos:station:DISL:MBLA:1,2007-07-02T13:00:00Z,30.4367,-88.0117,14.2,2.5,14.0,99.0,'11111222,11111222,11144222' 
DISL,ioos:station:DISL:MBLA:1,2007-07-02T13:30:00Z,30.4367,-88.0117,14.2,2.2,357.0,99.0,'11111222,11111222,11144222' 
DISL,ioos:station:DISL:MBLA:1,2007-07-02T14:00:00Z,30.4367,-88.0117,14.2,2.4,342.0,99.0,'11111222,11111222,11144222' 
DISL,ioos:station:DISL:MBLA:1,2007-07-02T14:30:00Z,30.4367,-88.0117,14.2,3.2,355.0,99.0,'11111222,11111222,11144222' 
DISL,ioos:station:DISL:MBLA:1,2007-07-02T15:00:00Z,30.4367,-88.0117,14.2,4.2,359.0,99.0,'11111222,11111222,11144222' 
DISL,ioos:station:DISL:MBLA:1,2007-07-02T15:30:00Z,30.4367,-88.0117,14.2,3.8,13.0,99.0,'11111222,11111222,11144222' 
DISL,ioos:station:DISL:MBLA:1,2007-07-02T16:00:00Z,30.4367,-88.0117,14.2,5.2,12.0,99.0,'11111222,11111222,11144222' 
DISL,ioos:station:DISL:MBLA:1,2007-07-02T16:30:00Z,30.4367,-88.0117,14.2,4.0,14.0,99.0,'11111222,11111222,11144222' 
DISL,ioos:station:DISL:MBLA:1,2007-07-02T17:00:00Z,30.4367,-88.0117,14.2,4.0,19.0,99.0,'11111222,11111222,11144222' 
DISL,ioos:station:DISL:MBLA:1,2007-07-02T17:30:00Z,30.4367,-88.0117,14.2,3.4,35.0,99.0,'11111222,11111222,11144222' 
DISL,ioos:station:DISL:MBLA:1,2007-07-02T18:00:00Z,30.4367,-88.0117,14.2,3.5,36.0,99.0,'11111222,11111222,11144222' 
DISL,ioos:station:DISL:MBLA:1,2007-07-02T18:30:00Z,30.4367,-88.0117,14.2,3.8,43.0,99.0,'11111222,11111222,11144222' 
DISL,ioos:station:DISL:MBLA:1,2007-07-02T19:00:00Z,30.4367,-88.0117,14.2,4.0,31.0,99.0,'11111222,11111222,11144222' 
DISL,ioos:station:DISL:MBLA:1,2007-07-02T19:30:00Z,30.4367,-88.0117,14.2,4.1,31.0,99.0,'11111222,11111222,11144222' 
DISL,ioos:station:DISL:MBLA:1,2007-07-02T20:00:00Z,30.4367,-88.0117,14.2,2.9,33.0,99.0,'11111222,11111222,11144222' 
DISL,ioos:station:DISL:MBLA:1,2007-07-02T20:30:00Z,30.4367,-88.0117,14.2,0.4,41.0,99.0,'11111222,11111222,11144222' 
DISL,ioos:station:DISL:MBLA:1,2007-07-02T21:00:00Z,30.4367,-88.0117,14.2,2.8,211.0,99.0,'11111222,11111222,11144222' 
DISL,ioos:station:DISL:MBLA:1,2007-07-02T21:30:00Z,30.4367,-88.0117,14.2,2.8,215.0,99.0,'11111222,11111222,11144222' 
DISL,ioos:station:DISL:MBLA:1,2007-07-02T22:00:00Z,30.4367,-88.0117,14.2,4.4,221.0,99.0,'11111222,11111222,11144222' 
DISL,ioos:station:DISL:MBLA:1,2007-07-02T22:30:00Z,30.4367,-88.0117,14.2,5.1,228.0,99.0,'11111222,11111222,11144222' 
DISL,ioos:station:DISL:MBLA:1,2007-07-02T23:00:00Z,30.4367,-88.0117,14.2,5.4,222.0,99.0,'11111222,11111222,11144222' 
DISL,ioos:station:DISL:MBLA:1,2007-07-02T23:30:00Z,30.4367,-88.0117,14.2,6.8,241.0,99.0,'11111222,11111222,11144222' 
DISL,ioos:station:DISL:MBLA:1,2007-07-03T00:00:00Z,30.4367,-88.0117,14.2,6.4,254.0,99.0,'11111222,11111222,11144222' 
DISL,ioos:station:DISL:MBLA:1,2007-07-03T00:30:00Z,30.4367,-88.0117,14.2,6.5,246.0,99.0,'11111222,11111222,11144222' 
DISL,ioos:station:DISL:MBLA:1,2007-07-03T01:00:00Z,30.4367,-88.0117,14.2,6.7,252.0,99.0,'11111222,11111222,11144222' 
DISL,ioos:station:DISL:MBLA:1,2007-07-03T01:30:00Z,30.4367,-88.0117,14.2,5.7,265.0,99.0,'11111222,11111222,11144222' 
DISL,ioos:station:DISL:MBLA:1,2007-07-03T02:00:00Z,30.4367,-88.0117,14.2,10.8,46.0,99.0,'11111222,11111222,11144222' 
DISL,ioos:station:DISL:MBLA:1,2007-07-03T02:30:00Z,30.4367,-88.0117,14.2,4.6,30.0,99.0,'11111222,11111222,11144222' 
DISL,ioos:station:DISL:MBLA:1,2007-07-03T03:00:00Z,30.4367,-88.0117,14.2,2.4,289.0,99.0,'11111222,11111222,11144222' 
DISL,ioos:station:DISL:MBLA:1,2007-07-03T03:30:00Z,30.4367,-88.0117,14.2,0.5,272.0,99.0,'11111222,11111222,11144222' 
DISL,ioos:station:DISL:MBLA:1,2007-07-03T04:00:00Z,30.4367,-88.0117,14.2,2.6,145.0,99.0,'11111222,11111222,11144222' 
DISL,ioos:station:DISL:MBLA:1,2007-07-03T04:30:00Z,30.4367,-88.0117,14.2,2.5,161.0,99.0,'11111222,11111222,11144222' 
DISL,ioos:station:DISL:MBLA:1,2007-07-03T05:00:00Z,30.4367,-88.0117,14.2,1.7,199.0,99.0,'11111222,11111222,11144222' 
DISL,ioos:station:DISL:MBLA:1,2007-07-03T05:30:00Z,30.4367,-88.0117,14.2,1.5,229.0,99.0,'11111222,11111222,11144222' 
DISL,ioos:station:DISL:MBLA:1,2007-07-03T06:00:00Z,30.4367,-88.0117,14.2,2.3,294.0,99.0,'11111222,11111222,11144222' 
DISL,ioos:station:DISL:MBLA:1,2007-07-03T06:30:00Z,30.4367,-88.0117,14.2,5.3,304.0,99.0,'11111222,11111222,11144222' 
DISL,ioos:station:DISL:MBLA:1,2007-07-03T07:00:00Z,30.4367,-88.0117,14.2,4.6,351.0,99.0,'11111222,11111222,11144222' 
DISL,ioos:station:DISL:MBLA:1,2007-07-03T07:30:00Z,30.4367,-88.0117,14.2,5.7,48.0,99.0,'11111222,11111222,11144222' 
DISL,ioos:station:DISL:MBLA:1,2007-07-03T08:00:00Z,30.4367,-88.0117,14.2,5.5,39.0,99.0,'11111222,11111222,11144222' 
DISL,ioos:station:DISL:MBLA:1,2007-07-03T08:30:00Z,30.4367,-88.0117,14.2,2.4,38.0,99.0,'11111222,11111222,11144222' 
DISL,ioos:station:DISL:MBLA:1,2007-07-03T09:00:00Z,30.4367,-88.0117,14.2,1.3,80.0,99.0,'11111222,11111222,11144222' 
DISL,ioos:station:DISL:MBLA:1,2007-07-03T09:30:00Z,30.4367,-88.0117,14.2,4.0,93.0,99.0,'11111222,11111222,11144222' 
DISL,ioos:station:DISL:MBLA:1,2007-07-03T10:00:00Z,30.4367,-88.0117,14.2,3.7,80.0,99.0,'11111222,11111222,11144222' 
DISL,ioos:station:DISL:MBLA:1,2007-07-03T10:30:00Z,30.4367,-88.0117,14.2,3.7,79.0,99.0,'11111222,11111222,11144222' 
DISL,ioos:station:DISL:MBLA:1,2007-07-03T11:00:00Z,30.4367,-88.0117,14.2,3.9,84.0,99.0,'11111222,11111222,11144222' 
DISL,ioos:station:DISL:MBLA:1,2007-07-03T11:30:00Z,30.4367,-88.0117,14.2,4.5,101.0,99.0,'11111222,11111222,11144222' 
DISL,ioos:station:DISL:MBLA:1,2007-07-03T12:00:00Z,30.4367,-88.0117,14.2,4.9,84.0,99.0,'11111222,11111222,11144222' 
DISL,ioos:station:DISL:MBLA:1,2007-07-03T12:30:00Z,30.4367,-88.0117,14.2,5.1,81.0,99.0,'11111222,11111222,11144222' 
DISL,ioos:station:DISL:MBLA:1,2007-07-03T13:00:00Z,30.4367,-88.0117,14.2,4.6,83.0,99.0,'11111222,11111222,11144222' 
DISL,ioos:station:DISL:MBLA:1,2007-07-03T13:30:00Z,30.4367,-88.0117,14.2,3.8,82.0,99.0,'11111222,11111222,11144222' 
DISL,ioos:station:DISL:MBLA:1,2007-07-03T14:00:00Z,30.4367,-88.0117,14.2,4.1,68.0,99.0,'11111222,11111222,11144222' 
DISL,ioos:station:DISL:MBLA:1,2007-07-03T14:30:00Z,30.4367,-88.0117,14.2,3.9,62.0,99.0,'11111222,11111222,11144222' 
DISL,ioos:station:DISL:MBLA:1,2007-07-03T15:00:00Z,30.4367,-88.0117,14.2,3.8,67.0,99.0,'11111222,11111222,11144222' 
DISL,ioos:station:DISL:MBLA:1,2007-07-03T15:30:00Z,30.4367,-88.0117,14.2,2.0,66.0,99.0,'11111222,11111222,11144222' 
DISL,ioos:station:DISL:MBLA:1,2007-07-03T16:00:00Z,30.4367,-88.0117,14.2,0.5,122.0,99.0,'11111222,11111222,11144222' 
DISL,ioos:station:DISL:MBLA:1,2007-07-03T16:30:00Z,30.4367,-88.0117,14.2,0.4,22.0,99.0,'11111222,11111222,11144222' 
DISL,ioos:station:DISL:MBLA:1,2007-07-03T17:00:00Z,30.4367,-88.0117,14.2,0.8,215.0,99.0,'11111222,11111222,11144222' 
DISL,ioos:station:DISL:MBLA:1,2007-07-03T17:30:00Z,30.4367,-88.0117,14.2,1.7,219.0,99.0,'11111222,11111222,11144222' 
DISL,ioos:station:DISL:MBLA:1,2007-07-03T18:00:00Z,30.4367,-88.0117,14.2,6.6,187.0,99.0,'11111222,11111222,11144222' 
DISL,ioos:station:DISL:MBLA:1,2007-07-03T18:30:00Z,30.4367,-88.0117,14.2,10.0,172.0,99.0,'11111222,11111222,11144222' 
DISL,ioos:station:DISL:MBLA:1,2007-07-03T19:00:00Z,30.4367,-88.0117,14.2,9.6,174.0,99.0,'11111222,11111222,11144222' 
DISL,ioos:station:DISL:MBLA:1,2007-07-03T19:30:00Z,30.4367,-88.0117,14.2,7.2,166.0,99.0,'11111222,11111222,11144222' 
DISL,ioos:station:DISL:MBLA:1,2007-07-03T20:00:00Z,30.4367,-88.0117,14.2,5.9,69.0,99.0,'11111222,11111222,11144222' 
DISL,ioos:station:DISL:MBLA:1,2007-07-03T20:30:00Z,30.4367,-88.0117,14.2,5.8,325.0,99.0,'11111222,11111222,11144222' 
DISL,ioos:station:DISL:MBLA:1,2007-07-03T21:00:00Z,30.4367,-88.0117,14.2,2.6,91.0,99.0,'11111222,11111222,11144222' 
DISL,ioos:station:DISL:MBLA:1,2007-07-03T21:30:00Z,30.4367,-88.0117,14.2,1.9,102.0,99.0,'11111222,11111222,11144222' 
DISL,ioos:station:DISL:MBLA:1,2007-07-03T22:00:00Z,30.4367,-88.0117,14.2,2.2,67.0,99.0,'11111222,11111222,11144222' 
DISL,ioos:station:DISL:MBLA:1,2007-07-03T22:30:00Z,30.4367,-88.0117,14.2,3.2,59.0,99.0,'11111222,11111222,11144222' 
DISL,ioos:station:DISL:MBLA:1,2007-07-03T23:00:00Z,30.4367,-88.0117,14.2,3.4,77.0,99.0,'11111222,11111222,11144222' 
DISL,ioos:station:DISL:MBLA:1,2007-07-03T23:30:00Z,30.4367,-88.0117,14.2,1.7,99.0,99.0,'11111222,11111222,11144222' 
DISL,ioos:station:DISL:MBLA:1,2007-07-04T00:00:00Z,30.4367,-88.0117,14.2,1.4,35.0,99.0,'11111222,11111222,11144222' 
DISL,ioos:station:DISL:MBLA:1,2007-07-04T00:30:00Z,30.4367,-88.0117,14.2,4.2,54.0,99.0,'11111222,11111222,11144222' 
DISL,ioos:station:DISL:MBLA:1,2007-07-04T01:00:00Z,30.4367,-88.0117,14.2,4.7,36.0,99.0,'11111222,11111222,11144222' 
DISL,ioos:station:DISL:MBLA:1,2007-07-04T01:30:00Z,30.4367,-88.0117,14.2,3.5,46.0,99.0,'11111222,11111222,11144222' 
DISL,ioos:station:DISL:MBLA:1,2007-07-04T02:00:00Z,30.4367,-88.0117,14.2,4.2,39.0,99.0,'11111222,11111222,11144222' 
DISL,ioos:station:DISL:MBLA:1,2007-07-04T02:30:00Z,30.4367,-88.0117,14.2,5.9,43.0,99.0,'11111222,11111222,11144222' 
DISL,ioos:station:DISL:MBLA:1,2007-07-04T03:00:00Z,30.4367,-88.0117,14.2,7.2,36.0,99.0,'11111222,11111222,11144222' 
DISL,ioos:station:DISL:MBLA:1,2007-07-04T03:30:00Z,30.4367,-88.0117,14.2,6.4,47.0,99.0,'11111222,11111222,11144222' 
DISL,ioos:station:DISL:MBLA:1,2007-07-04T04:00:00Z,30.4367,-88.0117,14.2,5.2,55.0,99.0,'11111222,11111222,11144222' 
DISL,ioos:station:DISL:MBLA:1,2007-07-04T04:30:00Z,30.4367,-88.0117,14.2,4.7,60.0,99.0,'11111222,11111222,11144222' 
DISL,ioos:station:DISL:MBLA:1,2007-07-04T05:00:00Z,30.4367,-88.0117,14.2,4.5,62.0,99.0,'11111222,11111222,11144222' 
DISL,ioos:station:DISL:MBLA:1,2007-07-04T05:30:00Z,30.4367,-88.0117,14.2,5.2,73.0,99.0,'11111222,11111222,11144222' 
DISL,ioos:station:DISL:MBLA:1,2007-07-04T06:00:00Z,30.4367,-88.0117,14.2,8.2,82.0,99.0,'11111222,11111222,11144222' 
DISL,ioos:station:DISL:MBLA:1,2007-07-04T06:30:00Z,30.4367,-88.0117,14.2,7.3,78.0,99.0,'11111222,11111222,11144222' 
DISL,ioos:station:DISL:MBLA:1,2007-07-04T07:00:00Z,30.4367,-88.0117,14.2,6.0,81.0,99.0,'11111222,11111222,11144222' 
DISL,ioos:station:DISL:MBLA:1,2007-07-04T07:30:00Z,30.4367,-88.0117,14.2,5.8,88.0,99.0,'11111222,11111222,11144222' 
DISL,ioos:station:DISL:MBLA:1,2007-07-04T08:00:00Z,30.4367,-88.0117,14.2,5.2,92.0,99.0,'11111222,11111222,11144222' 
DISL,ioos:station:DISL:MBLA:1,2007-07-04T08:30:00Z,30.4367,-88.0117,14.2,5.6,91.0,99.0,'11111222,11111222,11144222' 
DISL,ioos:station:DISL:MBLA:1,2007-07-04T09:00:00Z,30.4367,-88.0117,14.2,6.6,90.0,99.0,'11111222,11111222,11144222' 
DISL,ioos:station:DISL:MBLA:1,2007-07-04T09:30:00Z,30.4367,-88.0117,14.2,6.2,85.0,99.0,'11111222,11111222,11144222' 
DISL,ioos:station:DISL:MBLA:1,2007-07-04T10:00:00Z,30.4367,-88.0117,14.2,7.2,82.0,99.0,'11111222,11111222,11144222' 
DISL,ioos:station:DISL:MBLA:1,2007-07-04T10:30:00Z,30.4367,-88.0117,14.2,8.7,80.0,99.0,'11111222,11111222,11144222' 
DISL,ioos:station:DISL:MBLA:1,2007-07-04T11:00:00Z,30.4367,-88.0117,14.2,8.0,80.0,99.0,'11111222,11111222,11144222' 
DISL,ioos:station:DISL:MBLA:1,2007-07-04T11:30:00Z,30.4367,-88.0117,14.2,8.4,84.0,99.0,'11111222,11111222,11144222' 
DISL,ioos:station:DISL:MBLA:1,2007-07-04T12:00:00Z,30.4367,-88.0117,14.2,8.6,87.0,99.0,'11111222,11111222,11144222' 
DISL,ioos:station:DISL:MBLA:1,2007-07-04T12:30:00Z,30.4367,-88.0117,14.2,9.0,90.0,99.0,'11111222,11111222,11144222' 
DISL,ioos:station:DISL:MBLA:1,2007-07-04T13:00:00Z,30.4367,-88.0117,14.2,8.8,91.0,99.0,'11111222,11111222,11144222' 
DISL,ioos:station:DISL:MBLA:1,2007-07-04T13:30:00Z,30.4367,-88.0117,14.2,8.4,88.0,99.0,'11111222,11111222,11144222' 
DISL,ioos:station:DISL:MBLA:1,2007-07-04T14:00:00Z,30.4367,-88.0117,14.2,7.9,94.0,99.0,'11111222,11111222,11144222' 
DISL,ioos:station:DISL:MBLA:1,2007-07-04T14:30:00Z,30.4367,-88.0117,14.2,6.8,104.0,99.0,'11111222,11111222,11144222' 
DISL,ioos:station:DISL:MBLA:1,2007-07-04T15:00:00Z,30.4367,-88.0117,14.2,6.7,104.0,99.0,'11111222,11111222,11144222' 
DISL,ioos:station:DISL:MBLA:1,2007-07-04T15:30:00Z,30.4367,-88.0117,14.2,5.7,98.0,99.0,'11111222,11111222,11144222' 
DISL,ioos:station:DISL:MBLA:1,2007-07-04T16:00:00Z,30.4367,-88.0117,14.2,4.8,95.0,99.0,'11111222,11111222,11144222' 
DISL,ioos:station:DISL:MBLA:1,2007-07-04T16:30:00Z,30.4367,-88.0117,14.2,6.3,124.0,99.0,'11111222,11111222,11144222' 
DISL,ioos:station:DISL:MBLA:1,2007-07-04T17:00:00Z,30.4367,-88.0117,14.2,7.5,144.0,99.0,'11111222,11111222,11144222' 
DISL,ioos:station:DISL:MBLA:1,2007-07-04T17:30:00Z,30.4367,-88.0117,14.2,8.1,145.0,99.0,'11111222,11111222,11144222' 
DISL,ioos:station:DISL:MBLA:1,2007-07-04T18:00:00Z,30.4367,-88.0117,14.2,9.2,149.0,99.0,'11111222,11111222,11144222' 
DISL,ioos:station:DISL:MBLA:1,2007-07-04T18:30:00Z,30.4367,-88.0117,14.2,7.7,167.0,99.0,'11111222,11111222,11144222' 
DISL,ioos:station:DISL:MBLA:1,2007-07-04T19:00:00Z,30.4367,-88.0117,14.2,8.3,112.0,99.0,'11111222,11111222,11144222' 
DISL,ioos:station:DISL:MBLA:1,2007-07-04T19:30:00Z,30.4367,-88.0117,14.2,8.4,89.0,99.0,'11111222,11111222,11144222' 
DISL,ioos:station:DISL:MBLA:1,2007-07-04T20:00:00Z,30.4367,-88.0117,14.2,6.1,76.0,99.0,'11111222,11111222,11144222' 
DISL,ioos:station:DISL:MBLA:1,2007-07-04T20:30:00Z,30.4367,-88.0117,14.2,4.4,73.0,99.0,'11111222,11111222,11144222' 
DISL,ioos:station:DISL:MBLA:1,2007-07-04T21:00:00Z,30.4367,-88.0117,14.2,2.9,71.0,99.0,'11111222,11111222,11144222' 
DISL,ioos:station:DISL:MBLA:1,2007-07-04T21:30:00Z,30.4367,-88.0117,14.2,4.9,63.0,99.0,'11111222,11111222,11144222' 
DISL,ioos:station:DISL:MBLA:1,2007-07-04T22:00:00Z,30.4367,-88.0117,14.2,4.7,46.0,99.0,'11111222,11111222,11144222' 
DISL,ioos:station:DISL:MBLA:1,2007-07-04T22:30:00Z,30.4367,-88.0117,14.2,5.2,48.0,99.0,'11111222,11111222,11144222' 
DISL,ioos:station:DISL:MBLA:1,2007-07-04T23:00:00Z,30.4367,-88.0117,14.2,3.8,53.0,99.0,'11111222,11111222,11144222' 
DISL,ioos:station:DISL:MBLA:1,2007-07-04T23:30:00Z,30.4367,-88.0117,14.2,0.6,4.0,99.0,'11111222,11111222,11144222' 
DISL,ioos:station:DISL:MBLA:1,2007-07-05T00:00:00Z,30.4367,-88.0117,14.2,1.7,354.0,99.0,'11111222,11111222,11144222' 
DISL,ioos:station:DISL:MBLA:1,2007-07-05T00:30:00Z,30.4367,-88.0117,14.2,2.7,15.0,99.0,'11111222,11111222,11144222' 
DISL,ioos:station:DISL:MBLA:1,2007-07-05T01:00:00Z,30.4367,-88.0117,14.2,4.6,44.0,99.0,'11111222,11111222,11144222' 
DISL,ioos:station:DISL:MBLA:1,2007-07-05T01:30:00Z,30.4367,-88.0117,14.2,3.9,58.0,99.0,'11111222,11111222,11144222' 
DISL,ioos:station:DISL:MBLA:1,2007-07-05T02:00:00Z,30.4367,-88.0117,14.2,4.2,82.0,99.0,'11111222,11111222,11144222' 
DISL,ioos:station:DISL:MBLA:1,2007-07-05T02:30:00Z,30.4367,-88.0117,14.2,5.4,87.0,99.0,'11111222,11111222,11144222' 
DISL,ioos:station:DISL:MBLA:1,2007-07-05T03:00:00Z,30.4367,-88.0117,14.2,5.7,85.0,99.0,'11111222,11111222,11144222' 
DISL,ioos:station:DISL:MBLA:1,2007-07-05T03:30:00Z,30.4367,-88.0117,14.2,5.1,89.0,99.0,'11111222,11111222,11144222' 
DISL,ioos:station:DISL:MBLA:1,2007-07-05T04:00:00Z,30.4367,-88.0117,14.2,4.6,86.0,99.0,'11111222,11111222,11144222' 
DISL,ioos:station:DISL:MBLA:1,2007-07-05T04:30:00Z,30.4367,-88.0117,14.2,4.3,87.0,99.0,'11111222,11111222,11144222' 
DISL,ioos:station:DISL:MBLA:1,2007-07-05T05:00:00Z,30.4367,-88.0117,14.2,4.3,77.0,99.0,'11111222,11111222,11144222' 